Regional Weather Roundup
Issued by NWS

Home | Current Version | Previous Version | Text Only | Print | Product List | Glossary Off
Versions: 1 2 3 4 5 6 7 8 9 10 11 12 13 14 15 16 17 18 19 20 21 22 23 24 25 26 27 28 29 30 31 32 33 34 35 36 37 38 39 40 41 42 43 44 45 46 47 48 49 50

000
ASUS43 KFSD 281602
RWRSD

WEATHER ROUNDUP FOR SOUTH DAKOTA
NATIONAL WEATHER SERVICE SIOUX FALLS SD
1100 AM CDT TUE JUL 28 2015

NOTE: "FAIR" INDICATES FEW OR NO CLOUDS BELOW 12,000 FEET WITH NO
SIGNIFICANT WEATHER AND/OR OBSTRUCTIONS TO VISIBILITY.


SDZ001>005-009-010-012>017-281700-
NORTHWEST AND NORTH CENTRAL SOUTH DAKOTA

CITY           SKY/WX    TMP DP  RH WIND       PRES   REMARKS
BUFFALO          N/A     65  43  44 W37G48    29.84R
FAITH            N/A     68  42  38 W32G44    29.90R
MOBRIDGE       SUNNY     71  51  49 W22G31    29.81S
$$

SDZ012>016-024>037-041>051-057-063-072>074-281700-
SOUTHWEST AND SOUTH CENTRAL SOUTH DAKOTA

CITY           SKY/WX    TMP DP  RH WIND       PRES   REMARKS
RAPID CTY ARPT SUNNY     69  43  38 W16G26    30.01R
PIERRE         SUNNY     72  50  45 W23G30    29.90S
CUSTER         SUNNY     58  38  47 W14G22    30.10R
ELLSWORTH AFB  SUNNY     69  43  39 NW10G21   30.00R
PHILIP         SUNNY     71  47  42 NW18G30   29.97S
PINE RIDGE     SUNNY     68  46  45 W12G18    30.06R
WINNER         FAIR      71  51  49 NW22G28   29.97R
$$

SDZ004>011-016>023-039-040-281700-
NORTHEAST SOUTH DAKOTA

CITY           SKY/WX    TMP DP  RH WIND       PRES   REMARKS
ABERDEEN       SUNNY     71  56  58 W12G22    29.83R
WATERTOWN      PTSUNNY   73  67  81 SW20G28   29.82S
BROOKINGS      PTSUNNY   75  68  78 W20G26    29.84R
SISSETON         N/A     73  64  73 W15       29.75F
$$

SDZ017-020-022-023-036>040-048>070-281700-
SOUTHEAST SOUTH DAKOTA

CITY           SKY/WX    TMP DP  RH WIND       PRES   REMARKS
SIOUX FALLS    MOSUNNY   79  70  74 W9G17     29.83R
HURON          SUNNY     71  61  70 W15       29.87R
MITCHELL       MOSUNNY   73  62  68 NW15      29.88R
YANKTON        CLOUDY   N/A N/A N/A MISG        N/A
$$

ABBREVIATIONS USED IN REMARKS
   TC - TEMPERATURE IN CELSIUS
  WCI - WIND CHILL INDEX
   HX - HEAT INDEX
  VSB - VISIBILITY



USA.gov is the U.S. government's official web portal to all federal, state and local government web resources and services.